Temperature
18 18 18 18 17 17 17 17 17 17 17 17 17 17 17 17 17 17 17 17 17 17 17 17 17 17 17 17 17 17 17 17 17 17 16 16 16 16 16 16 16 16 16
18 18 18 18 17 17 17 17 17 17 17 17 17 17 17 17 17 17 17 17 17 17 17 17 17 17 17 17 17 17 17 17 16 16 16 16 16 16 16 16 16 16 16
18 18 18 17 17 17 17 17 17 17 17 17 17 17 17 17 17 17 17 17 17 17 17 17 17 17 17 17 17 17 17 16 16 16 16 16 16 16 16 16 16 16 16
18 18 18 18 17 17 17 17 17 17 17 17 17 17 17 17 17 17 17 17 17 17 17 17 17 17 17 17 17 17 17 16 16 16 16 16 16 16 16 16 16 16 16
18 18 18 18 17 17 17 17 17 17 17 17 17 17 17 17 17 17 17 17 17 17 17 17 17 17 17 17 16 16 16 16 16 16 16 16 16 16 16 16 16 16 16
18 18 18 18 18 17 17 17 17 17 17 17 17 17 17 17 17 17 17 17 17 17 17 17 17 17 17 17 16 16 16 16 16 16 16 16 16 16 16 16 16 16 16
18 18 18 18 18 18 18 17 17 17 17 17 17 17 17 17 17 17 17 17 17 17 17 17 17 17 17 17 17 16 16 16 16 16 16 16 16 16 16 16 16 16 16
18 18 18 18 18 18 18 17 17 17 17 17 17 17 17 17 17 17 17 17 17 17 17 16 16 16 16 16 16 16 16 16 16 16 16 16 16 16 16 16 16 16 15
18 18 18 17 17 17 17 17 17 17 17 17 17 17 17 17 17 17 17 17 17 17 16 16 16 16 16 16 16 16 16 16 16 16 16 16 16 16 16 16 15 15 15
18 18 17 17 17 17 17 17 17 17 17 17 17 17 17 17 17 16 17 17 17 16 16 16 16 16 16 16 16 16 16 16 16 16 16 16 16 16 15 15 15 15 15
18 18 18 17 17 17 17 17 17 17 17 17 17 17 17 17 17 16 16 16 16 16 16 16 16 16 16 16 16 16 16 16 16 16 16 15 15 15 15 15 15 15 15
18 17 17 17 17 17 17 17 17 17 17 17 17 17 17 16 17 16 16 16 16 16 16 16 16 16 16 16 16 16 16 15 15 15 15 15 15 15 15 15 15 15 15
18 17 17 17 17 17 17 17 17 17 17 17 17 17 16 16 16 16 16 16 16 16 16 16 16 16 16 16 15 15 15 15 15 15 15 15 15 15 15 15 15 15 14
18 17 17 17 17 17 17 17 17 17 17 16 16 16 16 16 16 16 16 16 16 16 16 16 16 16 15 15 15 15 15 15 15 15 15 15 15 15 15 14 14 14 14
17 17 17 17 17 17 17 17 17 17 17 16 16 16 16 16 16 16 16 16 16 15 15 15 15 15 15 15 15 15 15 15 15 15 15 15 14 14 14 14 14 14 14
17 17 17 17 17 17 17 17 16 16 17 16 16 16 16 16 16 16 16 16 16 15 15 15 15 15 15 15 15 15 14 14 14 14 14 14 14 14 14 14 14 14 13
17 17 17 17 17 17 16 16 16 16 16 16 16 16 16 16 16 16 16 15 15 15 15 15 15 14 14 14 14 14 14 14 14 14 14 14 14 14 14 13 13 13 13
17 17 17 17 16 16 16 16 16 16 16 16 16 16 16 16 16 15 15 15 15 15 15 15 14 14 14 14 14 14 14 14 14 14 13 13 13 13 13 13 13 13 13
17 17 17 17 16 16 16 16 16 16 15 15 15 15 15 15 15 15 15 15 15 15 15 14 14 14 14 14 13 13 13 13 13 13 13 13 13 13 13 13 13 12 12
17 17 17 16 16 16 16 16 15 15 15 15 15 15 15 15 15 15 15 14 14 14 14 14 14 14 13 13 13 13 13 13 13 13 13 12 12 12 12 12 12 12 12
17 17 16 16 16 16 16 15 15 15 15 15 15 15 15 15 15 14 14 14 14 14 14 14 13 13 13 13 13 13 13 13 12 12 12 12 12 12 12 12 12 11 11
17 16 16 16 16 16 15 15 15 15 15 15 15 15 14 14 14 14 14 14 14 14 13 13 13 13 13 13 13 13 13 12 12 12 12 12 12 12 11 11 11 11 11
16 16 16 16 15 15 15 15 15 15 15 15 14 14 14 14 14 14 14 14 13 13 13 13 13 13 13 13 13 12 12 12 12 12 12 11 11 11 11 11 11 11 11
16 16 16 15 15 15 15 15 15 15 14 14 14 14 14 14 14 14 13 13 13 13 13 13 12 13 12 12 12 12 12 12 12 11 11 11 11 11 11 11 11 11 11
16 16 16 15 15 15 15 15 15 14 14 14 14 14 14 14 14 13 13 13 13 13 13 12 12 12 12 12 12 12 12 12 11 11 11 11 11 11 11 11 11 10 10
16 16 15 15 15 15 15 15 14 14 14 14 14 14 14 13 13 13 13 13 13 13 12 12 12 12 12 12 12 12 12 11 11 11 11 11 11 11 10 11 11 10 10
Wind_Speed
1 1 1 1 1 1 1 1 1 1 1 1 1 2 2 3 3 4 5 7 9 9 10 10 10 10 9 9 10 10 11 11 11 11 10 10 9 9 9 9 10 10 10
2 1 1 1 0 1 1 1 1 1 0 1 1 1 2 2 2 3 4 5 7 9 9 9 10 10 10 10 11 11 11 12 12 11 10 10 10 10 10 10 9 10 10
3 2 1 1 1 1 1 1 1 1 1 1 1 1 1 1 2 2 3 3 5 7 9 9 10 10 10 10 11 11 12 12 12 12 11 11 12 11 11 11 10 11 11
4 3 2 1 1 1 2 1 1 1 1 1 1 0 0 0 1 2 2 3 4 4 6 8 9 9 9 10 10 11 11 11 11 12 12 12 11 11 11 11 11 10 10
4 3 2 1 2 2 1 1 1 1 1 0 0 0 0 0 1 1 2 2 3 4 4 5 5 6 8 9 9 9 9 9 10 11 12 12 11 12 12 12 12 11 11
3 3 2 2 2 2 1 2 2 1 1 1 0 1 1 1 1 1 2 2 2 3 3 3 3 3 5 6 7 8 8 9 9 11 11 11 11 12 13 12 12 12 11
3 3 2 2 2 2 2 3 2 1 1 1 1 1 2 1 0 1 1 1 1 1 1 2 2 3 3 4 5 6 8 8 9 10 10 10 10 11 11 11 12 12 12
3 3 3 3 2 2 2 2 2 1 1 1 2 1 1 2 2 1 0 0 0 0 0 1 2 3 3 3 3 4 5 7 8 9 10 10 10 11 11 11 11 12 12
3 3 3 3 2 3 2 2 3 3 2 1 1 2 2 2 1 1 1 0 1 1 1 1 2 3 3 2 3 3 5 5 6 8 8 9 9 10 10 10 10 10 11
2 2 3 3 2 2 2 2 2 2 3 2 1 1 1 2 1 1 1 1 1 1 1 2 2 2 2 2 3 3 4 5 5 6 6 7 8 10 11 11 11 10 10
0 1 2 2 2 2 2 2 2 2 2 2 2 1 1 1 1 2 1 1 1 1 1 2 1 2 2 2 2 3 3 4 4 5 5 5 6 8 9 11 11 11 10
1 0 1 2 2 1 2 2 2 2 2 2 2 2 2 2 2 2 2 1 1 1 1 1 1 1 1 2 3 2 3 3 4 4 5 5 6 6 6 7 10 11 10
0 1 1 1 1 1 1 1 2 2 2 2 3 2 2 2 2 2 2 2 1 1 1 1 1 1 1 1 2 2 2 2 2 3 3 3 3 3 3 3 3 6 8
2 1 1 1 1 1 1 1 1 1 1 2 2 2 2 3 3 3 3 3 1 1 1 2 1 1 1 1 1 1 1 0 0 1 1 1 2 2 2 3 3 3 3
2 1 2 1 1 1 1 1 1 1 1 1 1 2 2 2 2 3 3 3 3 2 2 2 1 1 0 1 0 1 1 1 1 1 1 1 1 2 2 2 3 3 3
1 2 2 1 1 1 1 1 1 1 1 1 1 1 1 1 1 1 2 2 3 3 3 1 2 1 0 1 2 1 1 2 2 2 2 2 2 2 3 3 4 4 4
2 2 2 1 1 1 1 1 1 1 1 1 1 1 1 1 1 1 1 2 2 3 3 1 1 0 0 1 1 2 2 2 2 2 2 2 2 2 3 3 4 4 5
2 3 2 2 2 1 1 1 1 1 1 1 1 1 2 1 1 1 1 2 2 3 3 2 1 0 0 0 1 1 2 2 2 2 2 2 3 3 3 4 5 5 6
2 2 2 2 2 2 2 2 2 2 1 1 1 2 2 1 1 1 1 2 2 2 2 2 1 0 1 1 2 2 2 2 2 2 2 2 3 3 3 5 6 6 6
3 2 2 2 2 2 2 2 2 2 2 2 2 2 2 2 3 3 2 2 2 2 2 2 1 1 1 1 1 1 1 1 1 2 2 2 3 3 4 5 5 6 6
3 2 2 2 2 2 2 3 3 2 2 2 2 2 2 2 3 3 3 3 3 3 2 2 2 1 1 1 1 1 1 1 0 0 1 1 2 2 2 3 4 5 5
2 2 2 2 2 2 3 4 3 3 2 2 3 3 2 2 2 2 3 4 5 4 4 3 2 3 3 3 2 3 2 2 1 1 1 0 1 1 1 2 4 5 6
3 2 2 2 3 3 4 4 4 3 3 3 3 3 2 2 2 1 1 1 2 3 5 4 4 4 4 5 4 4 3 3 2 2 2 1 1 1 1 2 4 5 6
3 3 3 3 3 3 4 4 4 3 3 3 4 4 3 3 3 2 1 1 1 2 3 3 4 5 5 5 5 5 4 3 1 1 2 2 1 2 1 1 3 6 6
3 3 3 3 3 4 4 4 4 3 3 4 4 4 4 4 4 4 3 2 2 2 2 3 4 4 5 5 6 4 4 3 2 2 2 2 2 1 1 1 2 4 6
3 3 3 3 4 5 5 5 5 3 3 4 3 4 5 5 5 5 4 4 4 4 2 1 1 2 2 4 7 6 6 5 3 3 4 4 2 2 1 1 1 2 4
Wind_Direction
148 144 135 121 149 124 103 100 106 95 73 73 101 129 147 163 180 193 199 202 206 209 214 217 217 219 218 217 217 218 216 213 209 212 215 213 211 211 210 215 216 214 212
172 169 165 163 206 167 150 146 141 124 101 95 89 117 147 169 198 204 207 212 218 221 222 226 229 228 225 225 225 224 223 222 218 214 213 213 217 217 215 218 219 218 218
175 174 171 177 210 159 120 100 85 80 72 85 83 85 128 189 202 205 212 218 226 229 231 232 235 235 233 232 231 228 228 229 224 215 215 218 221 221 219 220 223 223 223
173 164 151 169 190 137 111 104 84 73 56 65 68 11 18 229 218 215 217 217 226 233 236 235 234 238 240 239 237 234 230 228 223 218 217 219 219 216 216 217 219 219 220
176 159 152 164 156 122 117 140 107 121 117 105 107 351 333 259 248 229 227 224 221 225 234 240 235 236 243 247 244 241 235 229 227 218 218 220 220 220 220 221 220 220 221
177 162 152 153 147 133 141 144 141 130 155 171 90 7 350 306 268 249 243 237 235 233 226 226 224 243 253 257 249 242 234 232 230 226 226 223 223 223 223 223 221 222 223
167 159 151 143 152 164 177 171 151 141 149 131 97 15 4 12 321 241 246 233 246 245 245 241 246 253 264 268 268 255 243 237 234 235 236 231 229 226 225 225 225 225 223
168 172 159 163 165 162 155 156 145 145 161 138 138 111 359 354 351 350 61 143 205 149 264 270 261 252 245 258 275 271 260 251 243 239 236 234 236 235 231 231 229 227 225
174 165 162 168 173 168 175 180 170 168 178 184 160 156 162 236 312 348 6 194 188 194 245 257 263 253 238 237 261 267 260 256 251 245 239 232 231 235 232 230 229 228 227
167 175 170 173 176 169 177 191 180 176 164 191 192 191 192 173 175 312 343 335 288 269 262 259 267 265 251 238 251 256 260 261 259 253 249 240 234 234 234 232 229 229 230
95 178 172 167 174 180 190 189 173 179 178 184 187 174 170 160 174 193 268 311 334 289 275 257 255 272 267 252 257 265 265 262 264 260 254 247 241 237 235 233 232 233 233
29 36 152 153 170 181 192 197 192 185 187 184 185 182 180 181 192 189 215 248 275 298 298 290 276 277 274 265 264 272 265 262 260 260 251 246 247 243 241 238 237 236 233
140 257 156 151 158 181 191 174 173 196 194 192 199 205 206 214 196 179 183 206 231 281 319 319 269 266 270 266 275 281 277 261 257 256 250 243 237 225 217 217 231 231 229
206 189 160 153 156 167 178 158 161 200 197 207 211 204 211 225 209 196 188 178 206 258 261 261 293 257 257 219 256 212 249 221 198 232 237 229 202 195 202 204 198 195 198
187 164 153 142 147 155 162 154 175 211 179 198 210 205 216 232 214 211 203 191 189 224 251 240 244 283 259 143 167 137 138 78 101 99 82 124 143 152 156 168 164 155 144
165 139 139 141 134 155 158 144 170 200 162 227 218 196 229 247 227 204 199 203 202 203 224 228 231 270 292 87 97 111 99 79 78 87 101 102 116 129 130 133 136 137 133
162 158 160 160 167 199 195 172 204 197 191 259 265 205 246 245 232 227 204 199 201 193 213 238 225 274 201 106 79 80 77 78 60 85 107 112 116 127 134 134 132 130 127
176 176 172 175 190 195 191 185 217 225 210 229 258 252 273 266 245 224 199 193 195 193 190 204 212 199 220 138 88 69 55 71 63 77 104 122 127 130 135 135 131 126 125
176 180 175 186 194 190 192 199 202 207 209 225 233 237 258 238 237 220 201 200 193 174 172 172 184 148 69 74 74 65 58 47 54 58 89 109 115 125 139 137 130 127 126
180 187 190 196 197 198 198 201 197 205 218 239 241 241 243 230 224 213 205 202 177 159 151 152 149 127 107 79 105 106 67 44 36 46 67 86 93 96 111 124 131 130 129
190 187 186 200 202 204 212 201 201 207 219 243 258 260 257 246 230 213 204 193 176 169 163 164 163 161 172 160 187 189 181 144 60 32 77 60 88 91 103 133 143 143 142
185 175 193 207 217 232 218 199 192 204 216 225 246 262 272 268 263 231 203 191 183 182 184 182 192 203 211 209 197 187 177 176 211 222 170 44 137 159 179 178 172 166 163
193 196 212 216 227 240 227 210 203 199 214 227 234 243 258 264 252 251 244 192 198 199 192 189 195 213 212 205 195 196 199 200 210 183 171 198 182 222 236 201 188 184 182
197 213 223 224 235 254 241 226 215 210 227 238 237 231 233 246 239 215 197 186 216 232 222 210 213 221 223 210 199 200 195 184 151 165 182 198 207 219 241 244 213 199 196
213 221 220 223 240 261 249 226 196 209 234 249 248 240 234 239 236 196 183 201 230 259 253 223 225 225 221 209 189 168 167 171 209 217 195 193 193 197 223 246 231 202 196
212 218 233 239 239 249 250 230 201 211 237 253 260 256 242 235 224 199 199 205 226 246 250 266 269 242 217 202 193 197 193 193 203 218 196 187 184 177 209 227 221 200 195
Height
1536 1536 1537 1538 1539 1539 1540 1541 1541 1542 1543 1542 1542 1543 1545 1547 1549 1551 1553 1554 1555 1556 1557 1558 1559 1559 1560 1560 1561 1562 1563 1564 1565 1566 1567 1568 1570 1571 1572 1573 1574 1575 1576
1536 1537 1538 1539 1539 1540 1541 1542 1542 1543 1543 1543 1544 1544 1546 1547 1549 1551 1552 1553 1554 1555 1556 1557 1557 1558 1559 1559 1560 1561 1562 1562 1563 1564 1565 1566 1567 1569 1569 1570 1571 1573 1574
1537 1538 1539 1539 1540 1541 1541 1542 1543 1543 1544 1544 1544 1545 1546 1548 1549 1550 1551 1552 1553 1554 1555 1555 1556 1557 1557 1557 1558 1559 1559 1560 1560 1562 1563 1564 1565 1566 1567 1568 1569 1570 1571
1538 1538 1539 1540 1541 1541 1542 1542 1543 1543 1544 1544 1545 1546 1547 1548 1548 1550 1550 1551 1552 1553 1553 1554 1555 1555 1555 1556 1556 1556 1557 1557 1558 1559 1560 1561 1562 1563 1564 1565 1566 1567 1569
1538 1539 1539 1540 1541 1541 1542 1542 1543 1543 1544 1544 1545 1546 1546 1547 1548 1549 1549 1550 1550 1551 1552 1552 1553 1553 1553 1554 1554 1553 1554 1555 1556 1556 1557 1558 1559 1560 1561 1562 1564 1565 1566
1539 1539 1540 1540 1541 1541 1542 1543 1543 1544 1544 1545 1545 1546 1546 1546 1547 1547 1548 1548 1549 1549 1550 1551 1551 1551 1551 1551 1551 1551 1552 1552 1553 1554 1555 1556 1557 1558 1559 1559 1561 1562 1562
1539 1539 1540 1540 1541 1541 1542 1543 1543 1544 1544 1545 1545 1545 1545 1546 1546 1546 1547 1547 1547 1548 1548 1549 1549 1549 1549 1550 1550 1550 1550 1550 1550 1551 1552 1553 1554 1555 1556 1557 1557 1558 1559
1539 1539 1540 1540 1541 1541 1541 1542 1543 1543 1544 1544 1545 1545 1545 1546 1545 1546 1546 1546 1546 1547 1547 1547 1547 1547 1548 1548 1548 1548 1548 1548 1548 1549 1549 1550 1551 1552 1553 1553 1554 1555 1556
1539 1539 1539 1540 1540 1540 1541 1541 1542 1542 1543 1543 1544 1545 1545 1544 1545 1545 1545 1545 1546 1546 1546 1546 1546 1546 1546 1546 1546 1546 1546 1546 1546 1546 1546 1547 1547 1548 1549 1550 1551 1551 1552
1538 1539 1539 1539 1539 1540 1540 1540 1541 1541 1542 1542 1543 1543 1544 1544 1544 1544 1544 1544 1544 1545 1545 1545 1545 1545 1544 1544 1544 1544 1544 1544 1544 1543 1543 1543 1544 1544 1545 1546 1547 1548 1549
1538 1538 1538 1538 1539 1539 1539 1540 1540 1540 1540 1541 1541 1542 1542 1542 1543 1543 1542 1543 1543 1543 1543 1543 1543 1543 1543 1543 1542 1542 1542 1542 1541 1541 1541 1541 1541 1541 1542 1543 1543 1544 1545
1537 1537 1538 1538 1538 1538 1539 1539 1539 1539 1539 1540 1540 1540 1541 1541 1541 1541 1541 1541 1541 1541 1541 1541 1541 1541 1541 1541 1540 1540 1540 1539 1539 1538 1538 1538 1538 1538 1538 1539 1539 1540 1541
1535 1536 1536 1537 1537 1537 1537 1538 1538 1538 1538 1538 1538 1538 1539 1539 1539 1539 1539 1539 1539 1539 1539 1539 1539 1539 1539 1538 1538 1538 1537 1537 1536 1536 1536 1535 1535 1535 1535 1535 1536 1536 1537
1534 1535 1535 1535 1535 1536 1536 1536 1536 1536 1536 1536 1536 1536 1536 1537 1537 1537 1538 1538 1537 1537 1537 1537 1537 1537 1536 1536 1536 1536 1535 1535 1534 1534 1533 1533 1533 1533 1533 1533 1533 1534 1534
1533 1533 1533 1533 1534 1534 1534 1535 1535 1535 1534 1534 1535 1535 1535 1535 1535 1535 1535 1535 1536 1534 1534 1534 1535 1534 1534 1534 1534 1533 1533 1533 1532 1532 1531 1531 1530 1530 1530 1531 1531 1531 1532
1531 1531 1532 1532 1532 1532 1532 1533 1533 1533 1533 1533 1533 1533 1533 1532 1532 1532 1532 1532 1532 1532 1531 1531 1531 1532 1531 1531 1531 1531 1531 1530 1530 1529 1529 1528 1528 1528 1528 1528 1528 1529 1529
1529 1530 1530 1531 1531 1531 1531 1531 1532 1532 1531 1531 1531 1531 1530 1530 1530 1530 1530 1530 1530 1529 1529 1528 1529 1529 1529 1529 1529 1529 1528 1528 1527 1527 1527 1527 1526 1526 1526 1526 1526 1527 1527
1528 1528 1528 1529 1529 1529 1529 1530 1530 1530 1530 1529 1529 1529 1528 1528 1527 1527 1527 1527 1527 1526 1526 1526 1526 1527 1527 1527 1527 1526 1526 1526 1526 1525 1525 1525 1525 1524 1524 1524 1524 1525 1526
1526 1526 1526 1527 1527 1527 1528 1528 1528 1528 1528 1527 1527 1527 1526 1526 1525 1525 1524 1524 1524 1524 1524 1524 1524 1524 1525 1525 1525 1525 1524 1524 1524 1524 1524 1523 1523 1523 1522 1522 1523 1523 1524
1524 1524 1525 1525 1525 1525 1526 1526 1526 1526 1526 1526 1525 1525 1524 1523 1523 1522 1522 1522 1522 1522 1522 1522 1522 1522 1522 1523 1523 1523 1522 1522 1522 1522 1522 1522 1521 1521 1521 1521 1521 1522 1522
1521 1522 1522 1522 1523 1523 1523 1524 1524 1524 1524 1523 1523 1522 1521 1521 1520 1519 1519 1519 1519 1519 1519 1519 1519 1520 1520 1520 1521 1521 1521 1521 1521 1521 1520 1520 1520 1520 1520 1520 1520 1521 1521
1518 1519 1519 1520 1520 1520 1521 1521 1521 1521 1521 1520 1520 1519 1519 1518 1517 1517 1517 1517 1517 1517 1517 1517 1517 1517 1517 1518 1519 1519 1519 1519 1519 1520 1519 1519 1519 1519 1519 1519 1519 1520 1520
1516 1516 1516 1517 1517 1517 1518 1518 1518 1518 1518 1517 1517 1517 1516 1516 1515 1515 1514 1514 1514 1514 1514 1515 1514 1515 1515 1516 1516 1516 1516 1516 1517 1517 1517 1517 1517 1517 1518 1518 1518 1518 1518
1513 1513 1513 1514 1514 1515 1515 1515 1515 1515 1514 1514 1514 1513 1513 1513 1513 1512 1512 1511 1511 1511 1511 1512 1512 1512 1513 1514 1514 1515 1514 1515 1515 1515 1516 1515 1515 1516 1516 1516 1516 1517 1517
1510 1510 1511 1511 1511 1511 1512 1512 1512 1511 1511 1511 1510 1510 1510 1510 1510 1510 1509 1509 1508 1508 1509 1509 1509 1510 1510 1511 1511 1512 1512 1512 1512 1513 1513 1513 1513 1513 1514 1514 1515 1515 1515
1507 1507 1508 1508 1508 1508 1509 1509 1508 1508 1507 1507 1507 1507 1507 1507 1507 1507 1506 1506 1505 1506 1506 1506 1506 1507 1507 1508 1508 1509 1509 1509 1509 1510 1510 1511 1511 1511 1511 1512 1512 1512 1512